SR9NCI Weather Reports


time (UTC)temp
F
wind
direction
speed
knots
gust
knots
rain 1hr
in
rain 24hr
in
rain mn
in
humidity
%
barometer
mb
20220525121738 54 0 1.7 3.5 0.00 0.00 0.00
20220525121336 54 312 1.7 4.3 0.00 0.00 0.00
20220525120934 54 313 2.6 4.3 0.00 0.00 0.00
20220525120532 54 320 2.6 5.2 0.00 0.00 0.00
20220525120139 54 295 3.5 7.0 0.00 0.00 0.00
20220525115729 54 316 1.7 3.5 0.00 0.00 0.00
20220525115328 54 287 2.6 3.5 0.00 0.00 0.00
20220525114924 54 303 3.5 7.0 0.00 0.00 0.00
20220525114516 54 341 2.6 4.3 0.00 0.00 0.00
20220525114114 55 291 2.6 4.3 0.00 0.00 0.00
20220525113713 54 297 1.7 2.6 0.00 0.00 0.00
20220525113315 55 313 2.6 4.3 0.00 0.00 0.00
20220525112909 55 0 0.9 2.6 0.00 0.00 0.00
20220525112510 55 0 0.0 1.7 0.00 0.00 0.00
20220525112106 55 0 0.0 0.0 0.00 0.00 0.00
20220525111705 55 0 0.0 1.7 0.00 0.00 0.00
20220525111303 55 0 0.9 1.7 0.00 0.00 0.00
20220525110901 55 0 0.0 0.9 0.00 0.00 0.00
20220525110453 55 0 0.9 1.7 0.00 0.00 0.00
20220525110052 56 0 0.9 1.7 0.00 0.00 0.00
20220525105649 55 0 0.0 1.7 0.00 0.00 0.00
20220525105248 55 0 0.9 1.7 0.00 0.00 0.00
20220525104847 54 327 2.6 3.5 0.00 0.00 0.00
20220525104446 53 333 2.6 4.3 0.00 0.00 0.00
20220525104043 54 1 0.9 3.5 0.00 0.00 0.00
20220525103642 54 20 2.6 6.1 0.00 0.00 0.00
20220525103241 54 286 1.7 4.3 0.00 0.00 0.00
20220525102839 55 261 3.5 6.1 0.00 0.00 0.00
20220525102431 56 250 0.9 1.7 0.00 0.00 0.00
20220525102028 56 248 0.9 1.7 0.00 0.00 0.00
20220525101627 55 267 0.9 1.7 0.00 0.00 0.00
20220525101226 56 235 1.7 2.6 0.00 0.00 0.00
20220525100824 54 323 2.6 6.1 0.00 0.00 0.00
20220525100422 53 336 3.5 7.0 0.00 0.00 0.00
20220525100020 54 323 3.5 6.1 0.00 0.00 0.00
20220525095619 53 322 5.2 8.7 0.00 0.00 0.00
20220525095218 55 318 3.5 6.1 0.00 0.00 0.00
20220525094815 54 317 4.3 7.0 0.00 0.00 0.00
20220525094406 55 316 5.2 10.4 0.00 0.00 0.00
20220525094005 55 319 4.3 9.6 0.00 0.00 0.00
20220525093604 56 330 3.5 7.0 0.00 0.00 0.00
20220525093201 55 306 5.2 8.7 0.00 0.00 0.00
20220525092759 55 287 4.3 7.8 0.00 0.00 0.00
20220525092358 55 294 6.1 8.7 0.00 0.00 0.00
20220525091956 56 293 6.1 11.3 0.00 0.00 0.00
20220525091555 56 306 6.1 8.7 0.00 0.00 0.00
20220525091153 56 288 6.1 10.4 0.00 0.00 0.00
20220525090343 57 295 6.1 10.4 0.00 0.00 0.00
20220525085941 57 293 8.7 13.0 0.00 0.00 0.00
20220525085539 59 284 4.3 7.0 0.00 0.00 0.00
20220525085138 59 289 5.2 7.8 0.00 0.00 0.00
20220525084736 59 285 3.5 7.0 0.00 0.00 0.00
20220525084335 59 297 4.3 7.0 0.00 0.00 0.00
20220525083932 59 306 3.5 6.1 0.00 0.00 0.00
20220525083531 59 291 3.5 5.2 0.00 0.00 0.00
20220525083130 59 302 1.7 3.5 0.00 0.00 0.00
20220525082731 59 294 3.5 6.1 0.00 0.00 0.00
20220525082317 59 292 2.6 5.2 0.00 0.00 0.00
20220525081915 59 299 3.5 7.0 0.00 0.00 0.00
20220525081514 59 300 2.6 6.1 0.00 0.00 0.00
20220525081113 59 297 1.7 2.6 0.00 0.00 0.00
20220525080711 59 338 2.6 5.2 0.00 0.00 0.00
20220525080309 59 297 3.5 5.2 0.00 0.00 0.00
20220525075907 59 316 3.5 5.2 0.00 0.00 0.00
20220525075506 59 305 2.6 5.2 0.00 0.00 0.00
20220525075105 59 305 3.5 4.3 0.00 0.00 0.00
20220525074702 59 294 3.5 7.0 0.00 0.00 0.00
20220525074258 59 293 3.5 5.2 0.00 0.00 0.00
20220525073857 59 309 3.5 6.1 0.00 0.00 0.00
20220525073453 60 321 0.9 3.5 0.00 0.00 0.00
20220525073135 60 303 2.6 4.3 0.00 0.00 0.00
20220525073049 60 303 2.6 4.3 0.00 0.00 0.00
20220525072651 60 285 3.5 6.1 0.00 0.00 0.00
20220525072247 60 296 3.5 5.2 0.00 0.00 0.00
20220525071851 61 296 3.5 7.8 0.00 0.00 0.00
20220525071443 61 306 1.7 4.3 0.00 0.00 0.00
20220525071042 61 293 1.7 5.2 0.00 0.00 0.00
20220525070640 62 288 0.9 3.5 0.00 0.00 0.00
20220525070232 62 283 1.7 2.6 0.00 0.00 0.00
20220525065830 61 282 2.6 3.5 0.00 0.00 0.00
20220525065428 60 289 2.6 6.1 0.00 0.00 0.00
20220525065027 60 298 4.3 6.1 0.00 0.00 0.00
20220525064625 61 286 2.6 3.5 0.00 0.00 0.00
20220525064224 60 301 2.6 4.3 0.00 0.00 0.00
20220525063821 60 303 2.6 4.3 0.00 0.00 0.00
20220525063420 60 309 1.7 3.5 0.00 0.00 0.00
20220525063018 60 300 1.7 3.5 0.00 0.00 0.00
20220525062617 60 295 1.7 3.5 0.00 0.00 0.00
20220525062210 60 289 2.6 3.5 0.00 0.00 0.00
20220525061806 60 275 1.7 3.5 0.00 0.00 0.00
20220525061405 60 292 1.7 2.6 0.00 0.00 0.00
20220525061108 60 314 0.9 1.7 0.00 0.00 0.00
20220525061004 60 314 0.9 1.7 0.00 0.00 0.00
20220525060601 60 292 1.7 3.5 0.00 0.00 0.00
20220525060200 59 277 1.7 3.5 0.00 0.00 0.00
20220525055757 60 199 0.0 1.7 0.00 0.00 0.00
20220525055356 60 180 0.0 1.7 0.00 0.00 0.00
20220525054955 59 180 0.0 0.0 0.00 0.00 0.00
20220525054552 59 180 0.0 0.0 0.00 0.00 0.00
20220525054144 59 180 0.0 0.0 0.00 0.00 0.00
20220525053743 60 180 0.0 0.0 0.00 0.00 0.00
20220525053347 60 180 0.0 0.0 0.00 0.00 0.00
20220525052939 60 180 0.0 0.0 0.00 0.00 0.00
20220525052537 60 178 0.9 1.7 0.00 0.00 0.00
20220525052137 60 157 0.0 0.0 0.00 0.00 0.00
20220525051735 60 157 0.0 0.0 0.00 0.00 0.00
20220525051333 60 135 0.9 2.6 0.00 0.00 0.00
20220525050934 60 143 1.7 3.5 0.00 0.00 0.00
20220525050530 60 151 0.9 1.7 0.00 0.00 0.00
20220525050122 60 132 0.9 2.6 0.00 0.00 0.00
20220525045719 59 116 1.7 3.5 0.00 0.00 0.00
20220525045318 60 127 0.9 1.7 0.00 0.00 0.00
20220525044917 60 121 0.9 1.7 0.00 0.00 0.00
20220525044515 60 111 1.7 1.7 0.00 0.00 0.00
20220525044114 60 118 0.9 1.7 0.00 0.00 0.00
20220525043711 59 124 1.7 2.6 0.00 0.00 0.00
20220525043310 59 125 0.9 1.7 0.00 0.00 0.00
20220525042911 60 146 1.7 3.5 0.00 0.00 0.00
20220525042507 60 150 2.6 3.5 0.00 0.00 0.00
20220525042058 60 138 0.9 1.7 0.00 0.00 0.00
20220525041656 60 158 1.7 2.6 0.00 0.00 0.00
20220525041255 60 157 1.7 2.6 0.00 0.00 0.00
20220525040857 60 157 1.7 3.5 0.00 0.00 0.00
20220525040451 60 138 1.7 1.7 0.00 0.00 0.00
20220525040050 59 111 0.9 1.7 0.00 0.00 0.00
20220525035648 59 111 0.9 1.7 0.00 0.00 0.00
20220525035247 59 111 1.7 1.7 0.00 0.00 0.00
20220525034845 59 111 1.7 3.5 0.00 0.00 0.00
20220525034443 59 111 1.7 1.7 0.00 0.00 0.00
20220525034037 58 111 1.7 2.6 0.00 0.00 0.00
20220525033636 58 111 1.7 3.5 0.00 0.00 0.00
20220525033235 58 111 1.7 2.6 0.00 0.00 0.00
20220525032829 58 111 1.7 1.7 0.00 0.00 0.00
20220525032427 58 111 1.7 2.6 0.00 0.00 0.00
20220525032026 58 111 1.7 1.7 0.00 0.00 0.00
20220525031624 58 111 1.7 1.7 0.00 0.00 0.00
20220525031222 59 193 0.9 1.7 0.00 0.00 0.00
20220525030820 59 225 0.0 0.0 0.00 0.00 0.00
20220525030418 59 225 0.0 0.0 0.00 0.00 0.00
20220525030010 58 225 0.0 0.9 0.00 0.00 0.00
20220525025606 58 225 0.0 0.9 0.00 0.00 0.00
20220525025208 58 225 0.0 0.0 0.00 0.00 0.00
20220525024402 58 225 0.0 0.0 0.00 0.00 0.00
20220525024000 59 225 0.0 0.0 0.00 0.00 0.00
20220525023558 59 225 0.0 0.0 0.00 0.00 0.00
20220525023158 59 225 0.0 0.0 0.00 0.00 0.00
20220525022759 59 225 0.0 0.0 0.00 0.00 0.00
20220525022354 59 225 0.0 0.0 0.00 0.00 0.00
20220525021945 59 225 0.0 0.9 0.00 0.00 0.00
20220525021547 59 231 0.9 1.7 0.00 0.00 0.00
20220525021142 59 225 0.0 0.9 0.00 0.00 0.00
20220525020741 59 211 0.0 1.7 0.00 0.00 0.00
20220525020338 59 202 0.0 0.0 0.00 0.00 0.00
20220525015937 59 202 0.0 0.0 0.00 0.00 0.00
20220525015536 59 202 0.9 1.7 0.00 0.00 0.00
20220525015135 60 205 0.9 2.6 0.00 0.00 0.00
20220525014732 60 212 0.9 1.7 0.00 0.00 0.00
20220525014331 60 157 0.0 0.9 0.00 0.00 0.00
20220525013521 59 157 0.0 0.9 0.00 0.00 0.00
20220525013118 60 157 0.9 1.7 0.00 0.00 0.00
20220525012717 61 157 1.7 3.5 0.00 0.00 0.00
20220525012316 61 145 0.9 1.7 0.00 0.00 0.00
20220525011915 61 187 0.0 0.9 0.00 0.00 0.00
20220525011513 61 202 0.0 0.0 0.00 0.00 0.00
20220525011111 61 202 0.0 0.9 0.00 0.00 0.00
20220525010710 61 202 0.0 0.9 0.00 0.00 0.00
20220525010313 63 200 0.9 2.6 0.00 0.00 0.00
20220525005900 63 205 2.6 3.5 0.00 0.00 0.00
20220525005457 62 202 0.9 1.7 0.00 0.00 0.00
20220525005056 63 203 1.7 2.6 0.00 0.00 0.00
20220525004655 64 221 0.9 2.6 0.00 0.00 0.00
20220525004256 64 111 0.9 2.6 0.00 0.00 0.00
20220525003851 64 111 0.9 1.7 0.00 0.00 0.00
20220525003449 64 111 0.9 1.7 0.00 0.00 0.00
20220525003048 63 111 0.9 1.7 0.00 0.00 0.00
20220525002647 62 111 0.9 1.7 0.00 0.00 0.00
20220525002244 62 111 1.7 1.7 0.00 0.00 0.00
20220525001836 62 111 1.7 2.6 0.00 0.00 0.00
20220525001434 62 111 1.7 3.5 0.00 0.00 0.00
20220525001032 62 111 0.9 2.6 0.00 0.00 0.00
20220525000632 62 111 0.9 1.7 0.00 0.00 0.00
20220525000228 61 111 0.9 2.6 0.00 0.00 0.00
20220524235832 61 111 0.9 1.7 0.00 0.00 0.00
20220524235425 61 111 0.0 0.9 0.00 0.00 0.00
20220524234621 62 111 0.9 1.7 0.00 0.00 0.00
20220524234219 62 111 1.7 2.6 0.00 0.00 0.00
20220524233818 62 101 0.0 1.7 0.00 0.00 0.00
20220524233409 62 90 0.0 0.0 0.00 0.00 0.00
20220524233007 62 90 0.0 0.9 0.00 0.00 0.00
20220524232606 62 90 0.0 0.0 0.00 0.00 0.00
20220524232204 62 86 0.0 0.0 0.00 0.00 0.00
20220524231803 62 90 0.0 0.0 0.00 0.00 0.00
20220524231400 62 90 0.9 1.7 0.00 0.00 0.00
20220524230959 62 35 0.0 0.9 0.00 0.00 0.00
20220524230558 61 0 0.0 0.0 0.00 0.00 0.00
20220524230156 61 0 0.0 0.0 0.00 0.00 0.00
20220524225752 61 0 0.0 0.0 0.00 0.00 0.00
20220524225345 62 0 0.0 0.0 0.00 0.00 0.00
20220524224944 62 0 0.0 0.0 0.00 0.00 0.00
20220524224543 61 0 0.0 0.0 0.00 0.00 0.00
20220524224141 62 0 0.0 0.0 0.00 0.00 0.00
20220524223739 62 0 0.0 0.0 0.00 0.00 0.00
20220524223337 62 0 0.0 0.0 0.00 0.00 0.00
20220524222936 62 0 0.0 0.0 0.00 0.00 0.00
20220524222616 62 0 0.0 0.9 0.00 0.00 0.00
20220524222535 62 0 0.0 0.9 0.00 0.00 0.00
20220524222132 62 0 0.0 0.0 0.00 0.00 0.00
20220524221724 62 0 0.9 1.7 0.00 0.00 0.00
20220524221322 62 0 0.9 1.7 0.00 0.00 0.00
20220524220921 62 0 0.9 1.7 0.00 0.00 0.00
20220524220519 62 0 0.0 0.9 0.00 0.00 0.00
20220524220119 62 0 0.9 1.7 0.00 0.00 0.00
20220524215716 63 0 0.9 1.7 0.00 0.00 0.00
20220524214913 63 63 0.9 1.7 0.00 0.00 0.00
20220524214511 64 111 0.0 0.9 0.00 0.00 0.00
20220524214109 64 111 0.0 0.0 0.00 0.00 0.00
20220524213701 64 102 0.9 3.5 0.00 0.00 0.00
20220524213259 63 90 3.5 5.2 0.00 0.00 0.00
20220524212857 63 90 2.6 3.5 0.00 0.00 0.00
20220524212456 63 111 2.6 3.5 0.00 0.00 0.00
20220524212137 64 111 1.7 2.6 0.00 0.00 0.00
20220524212054 64 111 1.7 2.6 0.00 0.00 0.00
20220524211653 64 111 1.7 1.7 0.00 0.00 0.00
20220524211250 64 166 0.0 0.9 0.00 0.00 0.00
20220524210849 64 180 0.0 0.0 0.00 0.00 0.00
20220524210448 64 180 0.0 0.0 0.00 0.00 0.00
20220524210046 65 180 0.0 0.9 0.00 0.00 0.00
20220524205637 64 180 0.0 0.0 0.00 0.00 0.00
20220524205236 64 180 0.0 0.0 0.00 0.00 0.00
20220524204835 64 180 0.0 0.0 0.00 0.00 0.00
20220524204433 64 180 0.0 0.0 0.00 0.00 0.00
20220524204031 64 180 0.0 0.0 0.00 0.00 0.00
20220524203629 64 180 0.0 0.0 0.00 0.00 0.00
20220524203227 64 180 0.0 0.0 0.00 0.00 0.00
20220524202425 64 180 0.0 0.9 0.00 0.00 0.00
20220524202022 64 180 0.0 0.9 0.00 0.00 0.00
20220524201614 64 180 0.9 1.7 0.00 0.00 0.00
20220524201213 64 180 0.0 0.9 0.00 0.00 0.00
20220524200008 65 180 0.0 1.7 0.00 0.00 0.00
20220524195205 65 176 1.7 2.6 0.00 0.00 0.00
20220524194803 65 209 1.7 1.7 0.00 0.00 0.00
20220524194402 65 248 0.0 0.9 0.00 0.00 0.00
20220524193552 66 247 0.9 1.7 0.00 0.00 0.00
20220524193150 66 237 0.9 2.6 0.00 0.00 0.00
20220524192748 66 248 0.9 1.7 0.00 0.00 0.00
20220524192347 66 248 1.7 2.6 0.00 0.00 0.00
20220524191945 66 248 1.7 1.7 0.00 0.00 0.00
20220524191141 65 262 1.7 2.6 0.00 0.00 0.00
20220524190740 64 269 1.7 2.6 0.00 0.00 0.00
20220524190339 64 270 0.9 1.7 0.00 0.00 0.00
20220524185937 65 270 0.0 0.9 0.00 0.00 0.00
20220524185528 64 270 0.9 2.6 0.00 0.00 0.00
20220524185126 65 271 1.7 2.6 0.00 0.00 0.00
20220524184725 65 273 1.7 3.5 0.00 0.00 0.00
20220524184324 65 277 2.6 3.5 0.00 0.00 0.00
20220524183920 64 283 2.6 3.5 0.00 0.00 0.00
20220524183519 65 292 1.7 3.5 0.00 0.00 0.00
20220524183117 65 282 0.9 1.7 0.00 0.00 0.00
20220524182716 65 281 1.7 3.5 0.00 0.00 0.00
20220524182318 65 290 1.7 3.5 0.00 0.00 0.00
20220524181912 65 288 2.6 4.3 0.00 0.00 0.00
20220524181504 65 293 1.7 2.6 0.00 0.00 0.00
20220524181102 65 278 1.7 2.6 0.00 0.00 0.00
20220524180701 65 270 1.7 1.7 0.00 0.00 0.00
20220524180259 65 270 1.7 3.5 0.00 0.00 0.00
20220524175857 65 279 2.6 4.3 0.00 0.00 0.00
20220524175456 65 277 0.9 1.7 0.00 0.00 0.00
20220524175054 65 284 0.9 2.6 0.00 0.00 0.00
20220524174651 64 270 1.7 1.7 0.00 0.00 0.00
20220524174250 66 271 2.6 4.3 0.00 0.00 0.00
20220524173849 66 292 0.9 1.7 0.00 0.00 0.00
20220524173441 67 283 0.0 1.7 0.00 0.00 0.00
20220524173038 66 278 1.7 3.5 0.00 0.00 0.00
20220524172637 67 270 0.0 0.0 0.00 0.00 0.00
20220524172236 67 270 0.0 0.9 0.00 0.00 0.00
20220524171834 68 273 0.9 1.7 0.00 0.00 0.00
20220524171433 68 270 1.7 3.5 0.00 0.00 0.00
20220524171030 69 260 0.9 1.7 0.00 0.00 0.00
20220524170629 67 270 0.9 1.7 0.00 0.00 0.00
20220524170228 67 271 1.7 2.6 0.00 0.00 0.00
20220524165826 68 270 0.0 0.9 0.00 0.00 0.00
20220524165416 68 270 1.7 2.6 0.00 0.00 0.00
20220524165015 67 270 0.9 1.7 0.00 0.00 0.00
20220524164614 67 266 1.7 2.6 0.00 0.00 0.00
20220524164213 68 255 1.7 2.6 0.00 0.00 0.00
20220524163810 67 268 1.7 3.5 0.00 0.00 0.00
20220524163409 67 263 0.9 2.6 0.00 0.00 0.00
20220524163010 67 270 1.7 2.6 0.00 0.00 0.00
20220524162606 68 259 0.9 2.6 0.00 0.00 0.00
20220524162204 68 268 0.9 1.7 0.00 0.00 0.00
20220524161802 68 268 2.6 3.5 0.00 0.00 0.00
20220524161648 67 263 2.6 4.3 0.00 0.00 0.00
20220524161354 67 263 2.6 4.3 0.00 0.00 0.00
20220524160952 68 275 1.7 4.3 0.00 0.00 0.00
20220524160551 68 235 0.0 1.7 0.00 0.00 0.00
20220524160149 68 269 0.0 1.7 0.00 0.00 0.00
20220524155747 68 252 1.7 3.5 0.00 0.00 0.00
20220524155346 68 263 1.7 2.6 0.00 0.00 0.00
20220524154944 68 269 0.9 2.6 0.00 0.00 0.00
20220524154542 68 268 0.9 2.6 0.00 0.00 0.00
20220524154144 68 271 1.7 3.5 0.00 0.00 0.00
20220524153739 67 258 1.7 2.6 0.00 0.00 0.00
20220524153331 66 284 2.6 4.3 0.00 0.00 0.00
20220524152928 67 278 1.7 3.5 0.00 0.00 0.00
20220524152527 68 255 0.9 3.5 0.00 0.00 0.00
20220524152126 69 255 0.9 1.7 0.00 0.00 0.00
20220524151724 67 305 0.0 0.9 0.00 0.00 0.00
20220524151322 66 297 0.9 1.7 0.00 0.00 0.00
20220524150920 66 304 2.6 4.3 0.00 0.00 0.00
20220524150519 67 294 1.7 2.6 0.00 0.00 0.00
20220524150120 67 277 2.6 5.2 0.00 0.00 0.00
20220524145716 67 281 0.9 2.6 0.00 0.00 0.00
20220524145306 67 295 1.7 2.6 0.00 0.00 0.00
20220524144905 67 292 1.7 3.5 0.00 0.00 0.00
20220524144504 67 275 1.7 4.3 0.00 0.00 0.00
20220524144103 66 304 2.6 7.0 0.00 0.00 0.00
20220524143704 67 286 3.5 7.0 0.00 0.00 0.00
20220524143259 68 291 2.6 6.1 0.00 0.00 0.00
20220524142901 67 310 2.6 3.5 0.00 0.00 0.00
20220524142456 68 282 2.6 4.3 0.00 0.00 0.00
20220524142054 68 287 2.6 5.2 0.00 0.00 0.00
20220524141654 68 281 3.5 5.2 0.00 0.00 0.00
20220524141244 68 266 3.5 7.0 0.00 0.00 0.00
20220524140842 68 260 4.3 7.8 0.00 0.00 0.00
20220524140440 68 276 2.6 6.1 0.00 0.00 0.00
20220524140039 67 278 4.3 7.0 0.00 0.00 0.00
20220524135637 67 292 4.3 7.8 0.00 0.00 0.00
20220524135236 68 283 2.6 5.2 0.00 0.00 0.00
20220524134838 68 297 4.3 6.1 0.00 0.00 0.00
20220524134432 68 288 4.3 7.8 0.00 0.00 0.00
20220524134031 68 283 5.2 7.8 0.00 0.00 0.00
20220524133629 69 280 4.3 7.8 0.00 0.00 0.00
20220524133221 69 276 3.5 6.1 0.00 0.00 0.00
20220524132818 70 278 4.3 7.0 0.00 0.00 0.00
20220524132417 70 277 3.5 5.2 0.00 0.00 0.00
20220524132015 69 292 5.2 8.7 0.00 0.00 0.00
20220524131614 70 279 3.5 7.0 0.00 0.00 0.00
20220524131211 70 283 4.3 8.7 0.00 0.00 0.00
20220524130809 70 288 3.5 6.1 0.00 0.00 0.00
20220524130408 70 295 4.3 7.8 0.00 0.00 0.00
20220524130006 70 291 2.6 5.2 0.00 0.00 0.00
20220524125603 71 278 1.7 3.5 0.00 0.00 0.00
20220524125155 72 294 3.5 7.0 0.00 0.00 0.00
20220524124753 72 279 2.6 3.5 0.00 0.00 0.00
20220524124352 72 292 0.0 1.7 0.00 0.00 0.00
20220524123951 72 283 0.9 2.6 0.00 0.00 0.00
20220524123548 72 275 1.7 2.6 0.00 0.00 0.00
20220524123152 72 265 0.9 2.6 0.00 0.00 0.00
20220524122745 72 260 2.6 6.1 0.00 0.00 0.00
20220524122346 73 225 0.9 2.6 0.00 0.00 0.00